N4HAC Weather Reports


Display with metric or nautical units.
time (UTC)temp
F
wind
direction
speed
MPH
gust
MPH
rain 1hr
in
rain 24hr
in
rain mn
in
humidity
%
barometer
mb
20260509224026 77 42 1.0 1.0 0.00 0.00 0.00 45 1002.8
20260509223523 77 159 2.0 2.0 0.00 0.00 0.00 45 1002.8
20260509223021 77 166 1.0 2.0 0.00 0.00 0.00 45 1002.8
20260509222516 77 284 0.0 0.0 0.00 0.00 0.00 45 1002.7
20260509222012 76 284 0.0 1.0 0.00 0.00 0.00 46 1002.7
20260509221508 74 36 2.0 2.0 0.00 0.00 0.00 48 1002.8
20260509221004 74 345 0.0 1.0 0.00 0.00 0.00 49 1002.8
20260509220500 73 32 0.0 1.0 0.00 0.00 0.00 53 1002.9
20260509215956 73 311 0.0 0.0 0.00 0.00 0.00 52 1002.7
20260509215452 72 55 0.0 1.0 0.00 0.00 0.00 52 1002.8
20260509214950 72 75 2.0 3.0 0.00 0.00 0.00 53 1002.9
20260509214447 73 110 0.0 4.0 0.00 0.00 0.00 53 1002.8
20260509213943 73 128 1.0 2.0 0.00 0.00 0.00 53 1003.0
20260509213439 72 131 3.0 6.0 0.00 0.00 0.00 55 1003.0
20260509212937 72 148 3.0 4.0 0.00 0.00 0.00 51 1002.6
20260509212434 73 149 3.0 5.0 0.00 0.00 0.00 52 1002.7
20260509211930 73 167 4.0 5.0 0.00 0.00 0.00 51 1002.7
20260509211426 72 129 6.0 8.0 0.00 0.00 0.00 53 1002.7
20260509210923 72 135 4.0 6.0 0.00 0.00 0.00 52 1002.7
20260509210420 71 143 0.0 4.0 0.00 0.00 0.00 55 1002.3
20260509205915 71 156 5.0 9.0 0.00 0.00 0.00 54 1002.5
20260509205415 71 150 9.0 14.0 0.00 0.00 0.00 52 1002.8
20260509204911 71 199 2.0 5.0 0.00 0.00 0.00 52 1002.5
20260509204408 72 132 6.0 9.0 0.00 0.00 0.00 55 1002.5
20260509203904 72 137 3.0 6.0 0.00 0.00 0.00 54 1002.7
20260509203400 73 46 2.0 4.0 0.00 0.00 0.00 53 1002.3
20260509202858 72 115 3.0 8.0 0.00 0.00 0.00 53 1002.2
20260509202353 74 65 2.0 4.0 0.00 0.00 0.00 51 1002.3
20260509201849 73 125 2.0 6.0 0.00 0.00 0.00 51 1002.5
20260509201344 72 85 1.0 6.0 0.00 0.00 0.00 54 1002.3
20260509200841 71 126 4.0 7.0 0.00 0.00 0.00 53 1002.6
20260509200336 71 196 8.0 9.0 0.00 0.00 0.00 54 1002.5
20260509195833 71 191 3.0 11.0 0.00 0.00 0.00 55 1002.7
20260509195333 73 126 6.0 13.0 0.00 0.00 0.00 54 1002.8
20260509194833 73 141 3.0 6.0 0.00 0.00 0.00 56 1002.8
20260509194330 73 52 8.0 9.0 0.00 0.00 0.00 53 1002.6
20260509193827 71 126 2.0 8.0 0.00 0.00 0.00 50 1002.9
20260509193327 71 197 7.0 13.0 0.00 0.00 0.00 54 1002.9
20260509192823 71 139 9.0 14.0 0.00 0.00 0.00 53 1003.0
20260509192319 72 125 3.0 13.0 0.00 0.00 0.00 51 1003.0
20260509191814 73 188 7.0 12.0 0.00 0.00 0.00 54 1002.9
20260509191310 72 143 10.0 11.0 0.00 0.00 0.00 53 1003.1
20260509190806 71 123 6.0 12.0 0.00 0.00 0.00 57 1003.3
20260509190304 71 164 11.0 12.0 0.00 0.00 0.00 55 1003.5
20260509185801 72 146 12.0 15.0 0.00 0.00 0.00 55 1003.5
20260509185257 72 148 10.0 10.0 0.00 0.00 0.00 54 1003.3
20260509184755 71 107 6.0 11.0 0.00 0.00 0.00 58 1003.7
20260509184252 70 61 7.0 8.0 0.00 0.00 0.00 58 1003.6
20260509183748 71 67 5.0 9.0 0.00 0.00 0.00 59 1003.6
20260509183244 71 149 4.0 8.0 0.00 0.00 0.00 54 1003.8
20260509182739 71 139 4.0 6.0 0.00 0.00 0.00 57 1004.0
20260509182237 69 6 3.0 10.0 0.00 0.00 0.00 58 1004.2
20260509181734 69 46 2.0 4.0 0.00 0.00 0.00 58 1003.9
20260509181232 68 134 3.0 8.0 0.00 0.00 0.00 58 1004.1
20260509180729 68 135 3.0 12.0 0.00 0.00 0.00 58 1003.9
20260509180225 68 56 3.0 5.0 0.00 0.00 0.00 60 1003.9
20260509175721 67 71 2.0 5.0 0.00 0.00 0.00 61 1003.9
20260509175218 67 37 4.0 5.0 0.00 0.00 0.00 59 1004.1
20260509174714 67 135 3.0 4.0 0.00 0.00 0.00 62 1004.1
20260509174209 68 34 2.0 4.0 0.00 0.00 0.00 57 1004.6
20260509173705 68 170 2.0 2.0 0.00 0.00 0.00 59 1004.8
20260509173201 68 150 3.0 3.0 0.00 0.00 0.00 56 1004.7
20260509172657 67 153 1.0 3.0 0.00 0.00 0.00 56 1004.7
20260509172154 66 186 0.0 4.0 0.00 0.00 0.00 59 1004.9
20260509171649 66 217 4.0 6.0 0.00 0.00 0.00 59 1004.9
20260509171146 66 230 2.0 5.0 0.00 0.00 0.00 59 1004.9
20260509170643 66 253 2.0 5.0 0.00 0.00 0.00 59 1004.9
20260509170139 66 220 2.0 3.0 0.00 0.00 0.00 59 1004.9
20260509165637 66 227 5.0 6.0 0.00 0.00 0.00 58 1004.9
20260509165133 67 120 2.0 4.0 0.00 0.00 0.00 56 1004.9
20260509164629 65 168 3.0 10.0 0.00 0.00 0.00 60 1004.9
20260509164125 66 176 3.0 5.0 0.00 0.00 0.00 57 1005.1
20260509163623 65 153 4.0 6.0 0.00 0.00 0.00 61 1005.2
20260509163118 66 120 5.0 5.0 0.00 0.00 0.00 60 1005.2
20260509162616 65 141 5.0 11.0 0.00 0.00 0.00 63 1005.0
20260509162112 66 132 11.0 15.0 0.00 0.00 0.00 58 1005.2
20260509161608 66 130 7.0 12.0 0.00 0.00 0.00 60 1004.9
20260509161108 67 133 3.0 4.0 0.00 0.00 0.00 60 1005.2
20260509160605 67 60 6.0 6.0 0.00 0.00 0.00 61 1005.1
20260509160059 66 129 4.0 8.0 0.00 0.00 0.00 62 1005.2
20260509155556 65 69 4.0 8.0 0.00 0.00 0.00 62 1005.1
20260509155053 65 133 4.0 5.0 0.00 0.00 0.00 58 1005.1
20260509154549 64 357 2.0 5.0 0.00 0.00 0.00 59 1004.8
20260509154046 64 34 5.0 11.0 0.00 0.00 0.00 60 1005.2
20260509153543 67 116 5.0 7.0 0.00 0.00 0.00 58 1004.9
20260509153040 66 68 6.0 9.0 0.00 0.00 0.00 60 1004.9
20260509152536 68 41 5.0 6.0 0.00 0.00 0.00 57 1004.8
20260509152033 67 163 5.0 5.0 0.00 0.00 0.00 55 1004.9
20260509151529 65 214 2.0 5.0 0.00 0.00 0.00 58 1004.9
20260509151027 65 138 6.0 12.0 0.00 0.00 0.00 61 1005.2
20260509150524 64 204 2.0 5.0 0.00 0.00 0.00 58 1005.0
20260509150023 66 175 4.0 5.0 0.00 0.00 0.00 58 1005.1
20260509145518 65 146 3.0 5.0 0.00 0.00 0.00 62 1005.4
20260509145013 64 172 1.0 3.0 0.00 0.00 0.00 58 1005.3
20260509144511 62 147 3.0 6.0 0.00 0.00 0.00 60 1005.2
20260509144008 62 147 3.0 5.0 0.00 0.00 0.00 59 1005.3
20260509143505 62 175 3.0 4.0 0.00 0.00 0.00 63 1005.4
20260509143002 63 120 3.0 8.0 0.00 0.00 0.00 61 1005.5
20260509142458 63 226 3.0 4.0 0.00 0.00 0.00 58 1005.5
20260509141953 62 110 2.0 6.0 0.00 0.00 0.00 64 1005.4
20260509141450 62 67 4.0 9.0 0.00 0.00 0.00 65 1005.7
20260509140947 60 40 0.0 4.0 0.00 0.00 0.00 62 1005.6
20260509140443 60 61 0.0 4.0 0.00 0.00 0.00 63 1005.7
20260509135942 60 54 4.0 5.0 0.00 0.00 0.00 63 1006.0
20260509135439 59 131 2.0 4.0 0.00 0.00 0.00 66 1006.0
20260509134936 59 126 3.0 4.0 0.00 0.00 0.00 68 1006.0
20260509134433 58 145 3.0 7.0 0.00 0.00 0.00 68 1005.9
20260509133931 58 155 2.0 4.0 0.00 0.00 0.00 68 1005.6
20260509133427 58 62 2.0 9.0 0.00 0.00 0.00 67 1005.7
20260509132926 57 136 5.0 6.0 0.00 0.00 0.00 68 1005.8
20260509132423 57 103 2.0 2.0 0.00 0.00 0.00 71 1005.8
20260509131920 56 121 3.0 4.0 0.00 0.00 0.00 69 1005.6
20260509131417 55 153 2.0 4.0 0.00 0.00 0.00 71 1005.8
20260509130914 55 82 2.0 4.0 0.00 0.00 0.00 71 1005.9
20260509130409 55 88 3.0 4.0 0.00 0.00 0.00 72 1005.7
20260509125906 55 76 2.0 6.0 0.00 0.00 0.00 71 1005.9
20260509125403 55 145 3.0 4.0 0.00 0.00 0.00 72 1005.9
20260509124859 55 106 3.0 4.0 0.00 0.00 0.00 74 1005.8
20260509124356 55 112 3.0 5.0 0.00 0.00 0.00 73 1005.9
20260509123854 55 124 3.0 3.0 0.00 0.00 0.00 71 1005.8
20260509123351 54 121 1.0 4.0 0.00 0.00 0.00 73 1005.8
20260509122847 55 163 3.0 3.0 0.00 0.00 0.00 72 1005.9
20260509122344 54 153 2.0 5.0 0.00 0.00 0.00 72 1005.9
20260509121840 54 127 3.0 4.0 0.00 0.00 0.00 72 1005.8
20260509121337 54 119 2.0 4.0 0.00 0.00 0.00 71 1005.9
20260509120836 54 77 1.0 4.0 0.00 0.00 0.00 72 1005.8
20260509120333 54 77 0.0 3.0 0.00 0.00 0.00 73 1005.8
20260509115831 54 73 2.0 3.0 0.00 0.00 0.00 74 1005.7
20260509115328 53 92 2.0 4.0 0.00 0.00 0.00 74 1005.6
20260509114826 53 116 2.0 4.0 0.00 0.00 0.00 74 1006.0
20260509114324 53 102 2.0 2.0 0.00 0.00 0.00 76 1005.5
20260509113823 53 72 3.0 4.0 0.00 0.00 0.00 76 1005.6
20260509113320 53 65 2.0 3.0 0.00 0.00 0.00 76 1005.7
20260509112816 52 57 4.0 4.0 0.00 0.00 0.00 78 1005.6
20260509112314 52 70 4.0 5.0 0.00 0.00 0.00 77 1005.6
20260509111811 51 30 3.0 3.0 0.00 0.00 0.00 79 1005.3
20260509111308 51 0 0.0 2.0 0.00 0.00 0.00 82 1005.3
20260509110805 51 34 2.0 3.0 0.00 0.00 0.00 83 1005.2
20260509110301 52 42 3.0 4.0 0.00 0.00 0.00 80 1005.4
20260509105759 51 353 0.0 3.0 0.00 0.00 0.00 79 1005.4
20260509105257 51 38 2.0 3.0 0.00 0.00 0.00 79 1005.3
20260509104753 51 41 2.0 2.0 0.00 0.00 0.00 80 1005.3
20260509104250 52 85 1.0 2.0 0.00 0.00 0.00 80 1005.3
20260509103749 52 328 0.0 2.0 0.00 0.00 0.00 77 1005.1
20260509103245 52 10 0.0 2.0 0.00 0.00 0.00 77 1005.2
20260509102744 53 20 1.0 2.0 0.00 0.00 0.00 73 1005.3
20260509102241 53 235 2.0 2.0 0.00 0.00 0.00 74 1005.4
20260509101737 53 117 1.0 2.0 0.00 0.00 0.00 72 1005.4
20260509101233 53 143 1.0 2.0 0.00 0.00 0.00 71 1005.5
20260509100731 53 107 1.0 2.0 0.00 0.00 0.00 69 1005.4
20260509100228 53 113 0.0 1.0 0.00 0.00 0.00 70 1005.4
20260509095724 53 205 0.0 1.0 0.00 0.00 0.00 69 1005.5
20260509095222 53 293 2.0 3.0 0.00 0.00 0.00 69 1005.7
20260509094719 53 208 2.0 2.0 0.00 0.00 0.00 72 1005.5
20260509094215 53 46 0.0 2.0 0.00 0.00 0.00 73 1005.6
20260509093714 53 147 0.0 2.0 0.00 0.00 0.00 70 1005.4
20260509093210 53 89 0.0 1.0 0.00 0.00 0.00 72 1005.4
20260509092709 53 118 2.0 2.0 0.00 0.00 0.00 70 1005.6
20260509092207 53 91 0.0 3.0 0.00 0.00 0.00 69 1005.5
20260509091705 53 92 2.0 2.0 0.00 0.00 0.00 69 1005.5
20260509091200 53 214 1.0 2.0 0.00 0.00 0.00 68 1005.4
20260509090658 53 30 0.0 2.0 0.00 0.00 0.00 69 1005.4
20260509090155 53 86 2.0 2.0 0.00 0.00 0.00 69 1005.5
20260509085653 53 203 0.0 2.0 0.00 0.00 0.00 69 1005.6
20260509085149 53 345 0.0 1.0 0.00 0.00 0.00 69 1005.6
20260509084646 53 48 1.0 2.0 0.00 0.00 0.00 70 1005.5
20260509084143 53 4 2.0 2.0 0.00 0.00 0.00 70 1005.8
20260509083641 53 290 2.0 3.0 0.00 0.00 0.00 69 1005.6
20260509083137 52 339 2.0 3.0 0.00 0.00 0.00 73 1005.5
20260509082634 52 350 2.0 3.0 0.00 0.00 0.00 73 1005.8
20260509082131 51 11 3.0 3.0 0.00 0.00 0.00 76 1005.8
20260509081628 51 11 2.0 3.0 0.00 0.00 0.00 75 1005.7
20260509081125 51 322 2.0 2.0 0.00 0.00 0.00 76 1005.7
20260509080623 51 13 1.0 3.0 0.00 0.00 0.00 76 1005.6
20260509080121 51 17 2.0 3.0 0.00 0.00 0.00 77 1005.7
20260509075618 51 11 2.0 3.0 0.00 0.00 0.00 77 1005.8
20260509075116 51 75 1.0 4.0 0.00 0.00 0.00 81 1006.0
20260509074613 51 52 2.0 4.0 0.00 0.00 0.00 76 1006.0
20260509074109 51 28 2.0 3.0 0.00 0.00 0.00 76 1005.9
20260509073606 51 53 2.0 4.0 0.00 0.00 0.00 76 1005.9
20260509073102 51 351 0.0 3.0 0.00 0.00 0.00 77 1005.9
20260509072559 53 48 2.0 4.0 0.00 0.00 0.00 73 1006.0
20260509072056 52 301 4.0 5.0 0.00 0.00 0.00 71 1005.9
20260509071553 51 349 0.0 2.0 0.00 0.00 0.00 73 1006.1
20260509071050 51 229 1.0 2.0 0.00 0.00 0.00 77 1005.8
20260509070547 51 62 0.0 2.0 0.00 0.00 0.00 76 1005.8
20260509070043 50 348 0.0 2.0 0.00 0.00 0.00 77 1005.9
20260509065539 50 65 0.0 2.0 0.00 0.00 0.00 78 1006.0
20260509065035 50 37 2.0 3.0 0.00 0.00 0.00 78 1005.9
20260509064533 49 69 2.0 4.0 0.00 0.00 0.00 82 1005.8
20260509064031 51 62 2.0 3.0 0.00 0.00 0.00 77 1006.1
20260509063526 51 93 1.0 2.0 0.00 0.00 0.00 76 1006.1
20260509063024 51 0 1.0 2.0 0.00 0.00 0.00 73 1006.1
20260509062520 51 12 2.0 2.0 0.00 0.00 0.00 73 1006.2
20260509062018 51 10 1.0 2.0 0.00 0.00 0.00 74 1006.2
20260509061515 51 40 2.0 3.0 0.00 0.00 0.00 74 1006.1
20260509061012 51 25 1.0 2.0 0.00 0.00 0.00 75 1006.1
20260509060509 51 52 1.0 2.0 0.00 0.00 0.00 76 1006.3
20260509060005 50 52 2.0 2.0 0.00 0.00 0.00 78 1006.4
20260509055500 51 78 1.0 3.0 0.00 0.00 0.00 78 1006.4
20260509054957 51 71 3.0 4.0 0.00 0.00 0.00 78 1006.5
20260509054454 51 53 2.0 2.0 0.00 0.00 0.00 75 1006.3
20260509053952 52 45 2.0 4.0 0.00 0.00 0.00 73 1006.5
20260509053450 52 29 3.0 3.0 0.00 0.00 0.00 72 1006.5
20260509052947 52 24 1.0 3.0 0.00 0.00 0.00 72 1006.3
20260509052444 52 344 0.0 2.0 0.00 0.00 0.00 73 1006.6
20260509051942 52 54 1.0 2.0 0.00 0.00 0.00 73 1006.6
20260509051440 52 18 1.0 3.0 0.00 0.00 0.00 72 1006.6
20260509050937 52 4 2.0 2.0 0.00 0.00 0.00 70 1006.6
20260509050433 53 53 2.0 3.0 0.00 0.00 0.00 68 1006.5
20260509045930 53 233 0.0 2.0 0.00 0.00 0.00 68 1006.5
20260509045427 53 356 2.0 2.0 0.00 0.00 0.00 69 1006.6
20260509044924 54 326 2.0 3.0 0.00 0.00 0.00 65 1006.7
20260509044422 53 357 0.0 2.0 0.00 0.00 0.00 68 1006.4
20260509043919 54 354 2.0 3.0 0.00 0.00 0.00 64 1006.5
20260509043414 54 294 1.0 2.0 0.00 0.00 0.00 64 1006.4
20260509042910 54 20 2.0 3.0 0.00 0.00 0.00 66 1006.4
20260509042407 54 358 2.0 3.0 0.00 0.00 0.00 65 1006.4
20260509041903 54 10 2.0 2.0 0.00 0.00 0.00 65 1006.4
20260509041401 54 357 1.0 3.0 0.00 0.00 0.00 64 1006.3
20260509040859 54 290 2.0 3.0 0.00 0.00 0.00 67 1006.5
20260509040356 53 359 2.0 3.0 0.00 0.00 0.00 69 1006.4
20260509035853 54 36 3.0 4.0 0.00 0.00 0.00 67 1006.4
20260509035350 55 347 0.0 2.0 0.00 0.00 0.00 64 1006.6
20260509034846 55 28 0.0 2.0 0.00 0.00 0.00 63 1006.5
20260509034344 55 13 0.0 2.0 0.00 0.00 0.00 61 1006.5
20260509033840 55 65 1.0 2.0 0.00 0.00 0.00 59 1006.5
20260509033338 56 102 2.0 5.0 0.00 0.00 0.00 58 1006.4
20260509032835 56 152 2.0 2.0 0.00 0.00 0.00 59 1006.4
20260509032332 56 136 2.0 3.0 0.00 0.00 0.00 58 1006.4
20260509031830 56 141 2.0 4.0 0.00 0.00 0.00 58 1006.8
20260509031327 56 134 3.0 4.0 0.00 0.00 0.00 58 1006.5
20260509030824 56 133 2.0 2.0 0.00 0.00 0.00 58 1006.8
20260509030322 56 80 1.0 3.0 0.00 0.00 0.00 58 1006.7
20260509025818 56 358 1.0 3.0 0.00 0.00 0.00 58 1006.7
20260509025314 56 121 1.0 3.0 0.00 0.00 0.00 58 1006.6
20260509024810 57 78 2.0 4.0 0.00 0.00 0.00 58 1006.7
20260509024306 57 42 4.0 4.0 0.00 0.00 0.00 57 1006.9
20260509023803 57 70 2.0 4.0 0.00 0.00 0.00 57 1006.9
20260509023301 57 31 3.0 3.0 0.00 0.00 0.00 57 1006.9
20260509022756 56 52 2.0 3.0 0.00 0.00 0.00 58 1006.9
20260509022254 56 0 3.0 3.0 0.00 0.00 0.00 59 1006.9
20260509021751 56 12 2.0 3.0 0.00 0.00 0.00 60 1006.7
20260509021248 56 50 2.0 3.0 0.00 0.00 0.00 60 1006.7
20260509020746 57 31 2.0 2.0 0.00 0.00 0.00 59 1006.7
20260509020243 57 19 0.0 2.0 0.00 0.00 0.00 59 1006.5
20260509015741 57 9 2.0 3.0 0.00 0.00 0.00 59 1006.7
20260509015239 57 0 3.0 3.0 0.00 0.00 0.00 58 1006.5
20260509014735 58 357 1.0 2.0 0.00 0.00 0.00 55 1006.7
20260509014232 60 10 1.0 1.0 0.00 0.00 0.00 52 1006.5
20260509013729 60 174 0.0 2.0 0.00 0.00 0.00 49 1006.5
20260509013224 61 107 2.0 3.0 0.00 0.00 0.00 48 1006.3
20260509012721 61 123 3.0 4.0 0.00 0.00 0.00 48 1006.4
20260509012218 61 107 2.0 2.0 0.00 0.00 0.00 48 1006.7
20260509011716 61 95 1.0 2.0 0.00 0.00 0.00 48 1006.4
20260509011213 62 129 2.0 3.0 0.00 0.00 0.00 47 1006.6
20260509010711 62 60 0.0 5.0 0.00 0.00 0.00 47 1006.7
20260509010207 63 118 2.0 5.0 0.00 0.00 0.00 47 1006.4
20260509005705 63 140 5.0 8.0 0.00 0.00 0.00 46 1006.3
20260509005201 63 158 4.0 8.0 0.00 0.00 0.00 46 1006.4
20260509004656 63 156 4.0 6.0 0.00 0.00 0.00 46 1006.1
20260509004154 63 161 6.0 6.0 0.00 0.00 0.00 45 1006.4
20260509003652 63 153 0.0 3.0 0.00 0.00 0.00 45 1006.1
20260509003149 64 107 3.0 5.0 0.00 0.00 0.00 45 1006.1
20260509002647 64 122 2.0 8.0 0.00 0.00 0.00 45 1006.4
20260509002144 64 113 2.0 4.0 0.00 0.00 0.00 44 1006.0
20260509001642 65 105 0.0 6.0 0.00 0.00 0.00 44 1006.2
20260509001137 65 137 8.0 13.0 0.00 0.00 0.00 43 1006.0
20260509000635 65 146 2.0 5.0 0.00 0.00 0.00 43 1006.0
20260509000132 65 143 8.0 9.0 0.00 0.00 0.00 42 1005.9
20260508235629 66 134 6.0 11.0 0.00 0.00 0.00 42 1005.7
20260508235126 66 142 5.0 10.0 0.00 0.00 0.00 42 1006.0
20260508234623 66 130 4.0 9.0 0.00 0.00 0.00 42 1006.0
20260508234119 67 125 6.0 11.0 0.00 0.00 0.00 42 1005.8
20260508233619 67 129 9.0 12.0 0.00 0.00 0.00 41 1005.7
20260508233116 67 125 8.0 12.0 0.00 0.00 0.00 40 1005.9
20260508232613 67 131 9.0 11.0 0.00 0.00 0.00 41 1005.9
20260508232109 67 133 5.0 11.0 0.00 0.00 0.00 40 1005.7
20260508231607 67 168 6.0 13.0 0.00 0.00 0.00 40 1005.7
20260508231104 68 132 13.0 15.0 0.00 0.00 0.00 38 1005.7
20260508230600 68 143 9.0 16.0 0.00 0.00 0.00 40 1005.9
20260508230057 68 139 13.0 17.0 0.00 0.00 0.00 38 1005.6
20260508225555 68 135 7.0 9.0 0.00 0.00 0.00 40 1005.6
20260508225051 69 169 5.0 10.0 0.00 0.00 0.00 40 1005.6
20260508224549 69 117 2.0 5.0 0.00 0.00 0.00 37 1005.8